When you browse on this site, cookies collect data to enhance your experience and personalize the content and advertising you see.
Visit our Privacy Policy to learn more. By continuing to use the site, you agree to this use of cookies and data.
  • In Czech Republic
  • List of Countries
  • For 7 days
  • Water Temperature
  • Weather Map
  • Weather Widgets
  • user-avatar
    Login

    Hourly Weather Mayrhofen

    Today, 23 September, Monday

    Time Temperature Precipitation Wind Pressure Humidity
    00:00 +8°C° 0 mm 1 mps 616 mmHg 89%
    01:00 +7°C° 0 mm 2 mps 616 mmHg 89%
    02:00 +8°C° 0 mm 1 mps 616 mmHg 89%
    03:00 +8°C° 0 mm 1 mps 616 mmHg 89%
    04:00 +8°C° 0 mm 1 mps 616 mmHg 89%
    05:00 +8°C° 0.3 mm 1 mps 616 mmHg 91%
    06:00 +9°C° 0.3 mm 1 mps 616 mmHg 93%
    07:00 +9°C° 0.3 mm 1 mps 616 mmHg 94%
    08:00 +9°C° 1.6 mm 1 mps 617 mmHg 95%
    09:00 +8°C° 1.6 mm 2 mps 617 mmHg 96%
    10:00 +8°C° 1.6 mm 2 mps 617 mmHg 96%
    11:00 +7°C° 3 mm 2 mps 617 mmHg 96%
    12:00 +6°C° 3 mm 2 mps 617 mmHg 96%
    13:00 +5°C° 3 mm 2 mps 617 mmHg 97%
    14:00 +5°C° 2.1 mm 2 mps 616 mmHg 97%
    15:00 +5°C° 2.1 mm 2 mps 616 mmHg 96%
    16:00 +5°C° 2.1 mm 2 mps 616 mmHg 96%
    17:00 +5°C° 0.3 mm 2 mps 616 mmHg 97%
    18:00 +5°C° 0.3 mm 2 mps 616 mmHg 97%
    19:00 +4°C° 0.3 mm 2 mps 617 mmHg 97%
    20:00 +4°C° 0.2 mm 2 mps 617 mmHg 97%
    21:00 +4°C° 0.2 mm 2 mps 617 mmHg 97%
    22:00 +5°C° 0.2 mm 1 mps 617 mmHg 97%
    23:00 +5°C° 0 mm 1 mps 617 mmHg 96%

    Tomorrow, 24 September, Tuesday

    Time Temperature Precipitation Wind Pressure Humidity
    00:00 +4°C° 0 mm 1 mps 617 mmHg 96%
    01:00 +4°C° 0 mm 1 mps 617 mmHg 95%
    02:00 +4°C° 0 mm 1 mps 617 mmHg 94%
    03:00 +3°C° 0 mm 1 mps 616 mmHg 94%
    04:00 +3°C° 0 mm 1 mps 616 mmHg 93%
    05:00 +3°C° 0 mm 1 mps 616 mmHg 91%
    06:00 +4°C° 0 mm 1 mps 616 mmHg 89%
    07:00 +4°C° 0 mm 1 mps 616 mmHg 87%
    08:00 +7°C° 0 mm 1 mps 617 mmHg 80%
    09:00 +9°C° 0 mm 1 mps 617 mmHg 72%
    10:00 +11°C° 0 mm 1 mps 618 mmHg 64%
    11:00 +12°C° 0 mm 1 mps 618 mmHg 59%
    12:00 +14°C° 0 mm 1 mps 618 mmHg 54%
    13:00 +15°C° 0 mm 2 mps 618 mmHg 49%
    14:00 +14°C° 0 mm 1 mps 618 mmHg 52%
    15:00 +13°C° 0 mm 1 mps 617 mmHg 55%
    16:00 +13°C° 0 mm 1 mps 617 mmHg 59%
    17:00 +11°C° 0 mm 1 mps 616 mmHg 69%
    18:00 +8°C° 0 mm 1 mps 615 mmHg 78%
    19:00 +6°C° 0 mm 1 mps 614 mmHg 88%
    20:00 +6°C° 0 mm 1 mps 615 mmHg 88%
    21:00 +6°C° 0 mm 1 mps 615 mmHg 88%
    22:00 +6°C° 0 mm 1 mps 615 mmHg 89%
    23:00 +6°C° 0.1 mm 1 mps 615 mmHg 88%

    Day after tomorrow, 25 September, Wednesday

    Time Temperature Precipitation Wind Pressure Humidity
    00:00 +6°C° 0.1 mm 1 mps 615 mmHg 88%
    01:00 +6°C° 0.1 mm 1 mps 614 mmHg 87%
    02:00 +6°C° 0.1 mm 1 mps 614 mmHg 88%
    03:00 +5°C° 0.1 mm 1 mps 614 mmHg 89%
    04:00 +5°C° 0.1 mm 1 mps 613 mmHg 89%
    05:00 +6°C° 0.1 mm 1 mps 614 mmHg 88%
    06:00 +5°C° 0.1 mm 0 mps 614 mmHg 88%
    07:00 +6°C° 0.1 mm 0 mps 614 mmHg 87%
    08:00 +6°C° 0.9 mm 0 mps 615 mmHg 88%
    09:00 +8°C° 0.9 mm 1 mps 615 mmHg 89%
    10:00 +8°C° 0.9 mm 1 mps 615 mmHg 90%
    11:00 +7°C° 1 mm 1 mps 615 mmHg 91%
    12:00 +7°C° 1 mm 1 mps 615 mmHg 91%
    13:00 +6°C° 1 mm 0 mps 615 mmHg 92%
    14:00 +7°C° 0.6 mm 1 mps 614 mmHg 93%
    15:00 +7°C° 0.6 mm 1 mps 614 mmHg 94%
    16:00 +6°C° 0.6 mm 1 mps 614 mmHg 95%
    17:00 +6°C° 0.3 mm 1 mps 614 mmHg 95%
    18:00 +6°C° 0.3 mm 1 mps 615 mmHg 96%
    19:00 +6°C° 0.3 mm 1 mps 615 mmHg 97%
    20:00 +6°C° 0.1 mm 1 mps 615 mmHg 97%
    21:00 +5°C° 0.1 mm 1 mps 615 mmHg 96%
    22:00 +5°C° 0.1 mm 1 mps 615 mmHg 96%
    23:00 +4°C° 0 mm 1 mps 615 mmHg 95%

    26 September, Thursday

    Time Temperature Precipitation Wind Pressure Humidity
    00:00 +4°C° 0 mm 1 mps 615 mmHg 95%
    01:00 +3°C° 0 mm 1 mps 614 mmHg 94%
    02:00 +3°C° 0 mm 1 mps 615 mmHg 94%
    03:00 +3°C° 0 mm 1 mps 615 mmHg 94%
    04:00 +2°C° 0 mm 1 mps 615 mmHg 94%
    05:00 +3°C° 0 mm 1 mps 615 mmHg 93%
    06:00 +3°C° 0 mm 1 mps 616 mmHg 91%
    07:00 +4°C° 0 mm 1 mps 616 mmHg 90%
    08:00 +6°C° 0 mm 1 mps 617 mmHg 84%
    09:00 +8°C° 0 mm 1 mps 618 mmHg 78%
    10:00 +10°C° 0 mm 1 mps 619 mmHg 71%
    11:00 +10°C° 0.1 mm 1 mps 620 mmHg 70%
    12:00 +11°C° 0.1 mm 1 mps 620 mmHg 70%
    13:00 +12°C° 0.1 mm 1 mps 620 mmHg 69%
    14:00 +12°C° 0.1 mm 1 mps 620 mmHg 69%
    15:00 +12°C° 0.1 mm 1 mps 620 mmHg 69%
    16:00 +12°C° 0.1 mm 1 mps 620 mmHg 69%
    17:00 +10°C° 0 mm 1 mps 620 mmHg 76%
    18:00 +9°C° 0 mm 1 mps 619 mmHg 83%
    19:00 +7°C° 0 mm 1 mps 619 mmHg 89%
    20:00 +5°C° 0 mm 0 mps 619 mmHg 89%
    21:00 +5°C° 0 mm 0 mps 619 mmHg 89%
    22:00 +4°C° 0 mm 0 mps 619 mmHg 89%
    23:00 +4°C° 0 mm 0 mps 619 mmHg 89%

    27 September, Friday

    Time Temperature Precipitation Wind Pressure Humidity
    00:00 +4°C° 0 mm 0 mps 618 mmHg 88%
    01:00 +5°C° 0 mm 1 mps 618 mmHg 88%
    02:00 +5°C° 0 mm 1 mps 618 mmHg 87%
    03:00 +5°C° 0 mm 1 mps 618 mmHg 87%
    04:00 +5°C° 0 mm 1 mps 618 mmHg 86%
    05:00 +5°C° 0 mm 1 mps 618 mmHg 84%
    06:00 +6°C° 0 mm 1 mps 618 mmHg 83%
    07:00 +7°C° 0 mm 1 mps 619 mmHg 81%
    08:00 +9°C° 0 mm 1 mps 620 mmHg 74%
    09:00 +11°C° 0 mm 1 mps 621 mmHg 67%
    10:00 +14°C° 0 mm 1 mps 621 mmHg 60%
    11:00 +14°C° 0 mm 1 mps 621 mmHg 58%
    12:00 +15°C° 0 mm 1 mps 621 mmHg 56%
    13:00 +16°C° 0 mm 1 mps 621 mmHg 54%
    14:00 +15°C° 0 mm 2 mps 621 mmHg 57%
    15:00 +15°C° 0 mm 2 mps 620 mmHg 61%
    16:00 +14°C° 0 mm 2 mps 620 mmHg 64%
    17:00 +12°C° 0.3 mm 1 mps 619 mmHg 74%
    18:00 +10°C° 0.3 mm 1 mps 619 mmHg 83%
    19:00 +7°C° 0.3 mm 0 mps 618 mmHg 92%
    20:00 +7°C° 0.3 mm 0 mps 618 mmHg 93%
    21:00 +7°C° 0.3 mm 0 mps 619 mmHg 94%
    22:00 +7°C° 0.3 mm 0 mps 619 mmHg 95%
    23:00 +7°C° 0.1 mm 0 mps 619 mmHg 95%

    28 September, Saturday

    Time Temperature Precipitation Wind Pressure Humidity
    00:00 +6°C° 0.1 mm 0 mps 618 mmHg 96%
    01:00 +6°C° 0.1 mm 0 mps 618 mmHg 96%
    02:00 +6°C° 0 mm 0 mps 618 mmHg 96%
    03:00 +6°C° 0 mm 0 mps 618 mmHg 96%
    04:00 +6°C° 0 mm 0 mps 618 mmHg 96%
    05:00 +6°C° 0 mm 0 mps 618 mmHg 96%
    06:00 +6°C° 0 mm 0 mps 618 mmHg 95%
    07:00 +7°C° 0 mm 0 mps 618 mmHg 94%
    08:00 +9°C° 0.1 mm 1 mps 619 mmHg 91%
    09:00 +10°C° 0.1 mm 1 mps 619 mmHg 87%
    10:00 +11°C° 0.1 mm 1 mps 620 mmHg 83%
    11:00 +11°C° 0.1 mm 1 mps 620 mmHg 81%
    12:00 +11°C° 0.1 mm 1 mps 620 mmHg 79%
    13:00 +12°C° 0.1 mm 2 mps 620 mmHg 77%
    14:00 +11°C° 0.1 mm 1 mps 620 mmHg 79%
    15:00 +11°C° 0.1 mm 1 mps 619 mmHg 81%
    16:00 +11°C° 0.1 mm 1 mps 619 mmHg 82%
    17:00 +10°C° 0 mm 1 mps 619 mmHg 87%
    18:00 +9°C° 0 mm 1 mps 619 mmHg 92%
    19:00 +8°C° 0 mm 1 mps 619 mmHg 97%
    20:00 +8°C° 0 mm 1 mps 619 mmHg 97%
    21:00 +6°C° 0 mm 0 mps 619 mmHg 97%
    22:00 +6°C° 0 mm 0 mps 619 mmHg 97%
    23:00 +6°C° 0 mm 0 mps 619 mmHg 97%
    Show more